Overview Statistics Trail Chart Weather Telemetry Raw packets
 

This is the latest recevied weather packets stored in our database for station/object KG4GJX. If no packets are shown the sender has not sent any weather packets the latest 10 day(s).

<< 27 28 29 30 31 32 33 >>
Time Temp. Humidity Pressure Rain* Wind** Luminosity Snow
1788038788 30.56° C 68% 1019.6 hPa 0 mm - - -
1788038126 31.11° C 65% 1019.9 hPa 0 mm - - -
1788037463 31.11° C 64% 1019.6 hPa 0 mm - - -
1788036801 32.22° C 62% 1019.9 hPa 0 mm - - -
1788036139 32.78° C 57% 1019.9 hPa 0 mm - - -
1788035476 33.89° C 54% 1019.9 hPa 0 mm - - -
1788034814 33.89° C 49% 1020.3 hPa 0 mm - - -
1788034152 33.89° C 49% 1020.3 hPa 0 mm - - -
1788033489 33.33° C 50% 1020.3 hPa 0 mm - - -
1788032827 33.33° C 52% 1019.9 hPa 0 mm - - -
1788032165 33.33° C 52% 1020.3 hPa 0 mm - - -
1788031502 33.33° C 53% 1020.3 hPa 0 mm - - -
1788030840 32.78° C 55% 1020.3 hPa 0 mm - - -
1788030177 32.22° C 54% 1020.6 hPa 0 mm - - -
1788029514 33.33° C 52% 1020.6 hPa 0 mm - - -
1788028852 32.78° C 54% 1020.6 hPa 0 mm - - -
1788028189 32.78° C 57% 1020.9 hPa 0 mm - - -
1788027527 32.22° C 58% 1020.9 hPa 0 mm - - -
1788026864 32.22° C 58% 1020.9 hPa 0 mm - - -
1788026202 31.67° C 60% 1021.3 hPa 0 mm - - -
1788025540 31.11° C 58% 1021.3 hPa 0 mm - - -
1788024877 31.11° C 62% 1021.3 hPa 0 mm - - -
1788024214 30.56° C 63% 1021.3 hPa 0 mm - - -
1788023552 31.11° C 61% 1021.3 hPa 0 mm - - -
1788022890 31.11° C 62% 1021.6 hPa 0 mm - - -

* Rain latest hour (hover to see other rain measurements)
** Current wind speed in m/s (hover to see current wind gust speed)